Marina Di Campo Airport

Jump to: basic info | weather | frequencies | runways | comments

Related pages: nearby airports | nearby navaids | notams | map

Basic information (top)

Codes: EBA LIRJ
Location: lon 42.760300, lat 10.239400, elev 31 ft / 9 m msl
Status: medium_airport

Weather (top)

Current conditions for Bastia-Poretta Airport 36nm (66km) WSW (rec'd 2014/11/24 07:30Z):

LFKB 240730Z 22002KT 9999 SCT011 SCT150 BKN200 14/13 Q1022 NOSIG

Airport forecast for Bastia-Poretta Airport 36nm (66km) WSW (rec'd 2014/11/24 06:15Z):

TAF LFKB 240500Z 2406/2506 VRB03KT 9999 BKN012 BKN028 BKN130 
      BECMG 2406/2408 14010KT 
      TEMPO 2410/2415 14015G25KT 
      BECMG 2421/2423 VRB03KT PROB40 
      TEMPO 2406/2506 BKN006 BKN020 BKN080 TX20/2412Z TN14/2504Z

Frequencies (top)

Verify before use: may be inaccurate or out of date.

AFIS: 123.7 MHz (AFIS)

Runways (top)

16/34: 3,114 x 75 ft (949 x 23 m) — paved — not lighted — threshold 16 displaced 479 ft (146 m) — threshold 34 displaced 285 ft (87 m)

Latest comments (top)

No comments yet for Marina Di Campo Airport

More... (top)

See also NOTAMs and nearby airports and navaids, or visit the Marina Di Campo Airport page at the main OurAirports website..